This is the latest recevied weather packets stored in our database for station/object KU9TRY. If no packets are shown the sender has not sent any weather packets the latest 10 day(s).
| Time | Temp. | Humidity | Pressure | Rain* | Wind** | Luminosity | Snow |
|---|---|---|---|---|---|---|---|
| 1777766401 | 11.67° C | 72% | 1018.1 hPa | 0 mm | - | 4 W/m² | - |
| 1777766098 | 11.67° C | 74% | 1017.9 hPa | 0 mm | - | 6 W/m² | - |
| 1777765796 | 11.67° C | 71% | 1017.7 hPa | 0 mm | - | 11 W/m² | - |
| 1777765492 | 12.22° C | 70% | 1017.7 hPa | 0 mm | - | 14 W/m² | - |
| 1777765189 | 12.22° C | 69% | 1017.4 hPa | 0 mm | - | 22 W/m² | - |
| 1777764885 | 12.78° C | 67% | 1017.1 hPa | 0 mm | - | 17 W/m² | - |
| 1777764582 | 13.89° C | 60% | 1017 hPa | 0 mm | - | 11 W/m² | - |
| 1777764278 | 14.44° C | 54% | 1016.8 hPa | 0 mm | - | 6 W/m² | - |
| 1777763975 | 14.44° C | 52% | 1016.6 hPa | 0 mm | - | 5 W/m² | - |
| 1777763672 | 14.44° C | 55% | 1016.3 hPa | 0 mm | - | 7 W/m² | - |
| 1777763371 | 15° C | 54% | 1016 hPa | 0 mm | - | 9 W/m² | - |
| 1777763068 | 15° C | 52% | 1015.9 hPa | 0 mm | - | 22 W/m² | - |
| 1777762766 | 15.56° C | 50% | 1015.9 hPa | 0 mm | - | 15 W/m² | - |
| 1777762462 | 15.56° C | 44% | 1015.7 hPa | 0 mm | - | 16 W/m² | - |
| 1777762159 | 15.56° C | 49% | 1016 hPa | 0 mm | - | 13 W/m² | - |
| 1777761855 | 15.56° C | 49% | 1015.7 hPa | 0 mm | - | 24 W/m² | - |
| 1777761552 | 15.56° C | 48% | 1015.6 hPa | 0 mm | - | 45 W/m² | - |
| 1777761250 | 15.56° C | 54% | 1015.7 hPa | 0 mm | - | 61 W/m² | - |
| 1777760948 | 15.56° C | 54% | 1015.6 hPa | 0 mm | - | 100 W/m² | - |
| 1777760645 | 15.56° C | 50% | 1015.6 hPa | 0 mm | - | 37 W/m² | - |
| 1777760340 | 15.56° C | 49% | 1015.6 hPa | 0 mm | - | 31 W/m² | - |
| 1777760037 | 16.11° C | 51% | 1015.5 hPa | 0 mm | - | 34 W/m² | - |
| 1777759734 | 16.11° C | 50% | 1015.5 hPa | 0 mm | - | 40 W/m² | - |
| 1777759430 | 16.67° C | 49% | 1015.4 hPa | 0 mm | - | 31 W/m² | - |
| 1777759127 | 16.67° C | 41% | 1015.3 hPa | 0 mm | - | 42 W/m² | - |
* Rain latest hour (hover to see other rain measurements)
** Current wind speed in m/s (hover to see current wind gust speed)